Погода в Буньково

Россия / Тюменская область     56°10′22″N   66°07′35″E
темп.,
°C
ветер,
м/с
пор.,
м/с
влажн.,
%
обл.,
%
осадки,
мм/ч
давл.,
гПа
погр.,
м
7 мая, пт
пт723:00+7з410500 0.0 1014280
02:00+6з49580 0.0 1016228
05:00+4з38650 0.0 1018162
08:00+10зсз58453 0.0 1019857
11:00+15з57337 0.0 10191262
14:00+18з562871 0.0 10191560
17:00+19з45289 0.0 10191676
20:00+15юз33465 0.0 101918
8 мая, сб
сб823:00+12юз33525 0.0 102021
02:00+10ююз33575 0.0 102031
05:00+9ююз225910 0.0 102010
08:00+15ююз2244100 0.0 1020250
11:00+20ююз223196 0.0 10191772
14:00+21ю2225100 0.0 10182496
17:00+21ююв2224100 0.0 10172512
20:00+17ю013387 0.0 101711
9 мая, вс
вс923:00+14ююв113883 0.0 101710
02:00+13всв223897 0.0 101610
05:00+13в2245100 0.0 101621
08:00+16в3641100 0.0 1017221
11:00+20в5730100 0.0 10161090
14:00+22всв5727100 0.0 10162686
17:00+22всв7930100 0.0 10151806
20:00+19всв7134697 0.0 1016451
10 мая, пн
пн1023:00+15всв5125196 0.0 1017271
02:00+13всв496264 0.0 1018158
05:00+11всв376865 0.0 1019120
08:00+16всв45498 0.0 1020474
11:00+20ссв57385 0.0 10202303
14:00+21с67263 0.0 10192395
17:00+21св56318 0.0 10192463
20:00+16вюв33464 0.0 102033
11 мая, вт
вт1123:00+12ю22524 0.0 102111
02:00+11з11573 0.0 102110
05:00+9зюз22630 0.0 102111
08:00+15сз22480 0.0 1021321
11:00+20с233333 0.0 10211609
14:00+22ссз3427100 0.0 10201868
17:00+22сз2429100 0.0 10202350
20:00+18сз4951100 0.0 1020345